Phillips, WI

1:34 PM CST on February 19, 2017 (GMT -0600)
Price County

Weather History for KPBH - February, 2012

Change the Weather History Date:

Monday, February 27, 2012

  Actual Average Record
Temperature  
Mean Temperature 26 °F -  
Max Temperature 30 °F 28 °F 51 °F (2016)
Min Temperature 21 °F 11 °F -24 °F (2014)
Degree Days  
Heating Degree Days 40    
Moisture  
Dew Point 18 °F    
Average Humidity 72    
Maximum Humidity 93    
Minimum Humidity 47    
Precipitation  
Precipitation 0.00 in - - ()
Sea Level Pressure  
Sea Level Pressure 30.13 in    
Wind  
Wind Speed 9 mph (WNW)    
Max Wind Speed 17 mph    
Max Gust Speed 25 mph    
Visibility 9 miles    
Events Snow    
Averages and records for this station are not official NWS values.
T = Trace of Precipitation, MM = Missing Value Source: NWS Daily Summary

Daily Weather History Graph

Daily Weather History Graph

Search for Another Location

Airport or City:

Trip Planner

Search our weather history database for the weather conditions in past years. The results will help you decide how hot, cold, wet, or windy it might be!

Date:

Astronomy

Feb. 27, 2012 Rise Set
Actual Time 6:44 AM CST 5:44 PM CST
Civil Twilight 6:14 AM CST 6:14 PM CST
Nautical Twilight 5:40 AM CST 6:49 PM CST
Astronomical Twilight 5:05 AM CST 7:23 PM CST
Moon 8:53 AM CST (2/27) No Moon Set
Length of Visible Light 12h 00m
Length of Day
11h 00m
Waxing Crescent, 29% of the Moon is Illuminated
Feb 27
Waxing Crescent
Feb 29
First Quarter
Mar 8
Full
Mar 14
Last Quarter
Mar 22
New

Hourly Weather History & Observations

Time (CST) Temp. Windchill Dew Point Humidity Pressure Visibility Wind Dir Wind Speed Gust Speed Precip Events Conditions
12:15 AM 30.2 °F 21.9 °F 24.8 °F 80% 29.82 in 7.0 mi WSW 9.2 mph 24.2 mph N/A Snow Light Snow
12:35 AM 30.2 °F 19.8 °F 24.8 °F 80% 29.83 in 5.0 mi WSW 13.8 mph 25.3 mph N/A Snow Light Snow
12:55 AM 30.2 °F 20.2 °F 24.8 °F 80% 29.84 in 7.0 mi WSW 12.7 mph 19.6 mph N/A Snow Light Snow
1:15 AM 28.4 °F 16.2 °F 23.0 °F 80% 29.85 in 10.0 mi WSW 17.3 mph 23.0 mph N/A   Overcast
1:35 AM 28.4 °F 19.1 °F 23.0 °F 80% 29.86 in 10.0 mi West 10.4 mph 19.6 mph N/A   Overcast
1:55 AM 28.4 °F 19.7 °F 24.8 °F 86% 29.87 in 10.0 mi West 9.2 mph 16.1 mph N/A Snow Light Snow
2:15 AM 28.4 °F 21.2 °F 24.8 °F 86% 29.88 in 10.0 mi WSW 6.9 mph 18.4 mph N/A Snow Light Snow
2:35 AM 28.4 °F 22.2 °F 24.8 °F 86% 29.88 in 10.0 mi West 5.8 mph 17.3 mph N/A Snow Light Snow
2:55 AM 28.4 °F 19.7 °F 24.8 °F 86% 29.88 in 7.0 mi West 9.2 mph 19.6 mph N/A Snow Light Snow
3:15 AM 28.4 °F 21.2 °F 24.8 °F 86% 29.89 in 7.0 mi West 6.9 mph - N/A Snow Light Snow
3:35 AM 28.4 °F 24.6 °F 24.8 °F 86% 29.91 in 7.0 mi West 3.5 mph 17.3 mph N/A Snow Light Snow
3:55 AM 28.4 °F 21.2 °F 24.8 °F 86% 29.92 in 7.0 mi West 6.9 mph - N/A Snow Light Snow
4:15 AM 28.4 °F 21.2 °F 24.8 °F 86% 29.93 in 10.0 mi West 6.9 mph 17.3 mph N/A   Overcast
4:35 AM 28.4 °F 20.4 °F 24.8 °F 86% 29.95 in 7.0 mi WNW 8.1 mph 17.3 mph N/A   Overcast
4:55 AM 28.4 °F 23.3 °F 24.8 °F 86% 29.97 in 4.0 mi WNW 4.6 mph 18.4 mph N/A   Overcast
5:15 AM 28.4 °F 24.6 °F 24.8 °F 86% 29.99 in 5.0 mi WNW 3.5 mph - N/A Snow Light Snow
5:35 AM 26.6 °F 16.2 °F 24.8 °F 93% 30.01 in 7.0 mi WNW 11.5 mph 20.7 mph N/A   Overcast
5:55 AM 24.8 °F 14.0 °F 21.2 °F 86% 30.03 in 7.0 mi WNW 11.5 mph 20.7 mph N/A Snow Light Snow
6:15 AM 24.8 °F 14.0 °F 21.2 °F 86% 30.04 in 5.0 mi WNW 11.5 mph 21.9 mph N/A Snow Light Snow
6:55 AM 23.0 °F 15.8 °F 19.4 °F 86% 30.07 in 4.0 mi WNW 5.8 mph 18.4 mph N/A Snow Light Snow
7:15 AM 23.0 °F 14.7 °F 19.4 °F 86% 30.08 in 7.0 mi WNW 6.9 mph - N/A Snow Light Snow
7:35 AM 23.0 °F 12.4 °F 19.4 °F 86% 30.10 in 10.0 mi NW 10.4 mph 17.3 mph N/A Snow Light Snow
7:55 AM 23.0 °F 15.8 °F 19.4 °F 86% 30.12 in 10.0 mi NW 5.8 mph - N/A Snow Light Snow
8:15 AM 21.2 °F 10.1 °F 17.6 °F 86% 30.14 in 10.0 mi WNW 10.4 mph 17.3 mph N/A Snow Light Snow
8:35 AM 21.2 °F 10.1 °F 17.6 °F 86% 30.15 in 7.0 mi WNW 10.4 mph 17.3 mph N/A Snow Light Snow
8:55 AM 21.2 °F 11.7 °F 15.8 °F 80% 30.17 in 7.0 mi WNW 8.1 mph 18.4 mph N/A Snow Light Snow
9:15 AM 21.2 °F 9.5 °F 15.8 °F 80% 30.18 in 7.0 mi NW 11.5 mph 16.1 mph N/A Snow Light Snow
9:35 AM 21.2 °F 11.7 °F 15.8 °F 80% 30.20 in 10.0 mi WNW 8.1 mph 17.3 mph N/A Snow Light Snow
9:55 AM 21.2 °F 10.1 °F 15.8 °F 80% 30.20 in 10.0 mi WNW 10.4 mph 16.1 mph N/A Snow Light Snow
10:15 AM 23.0 °F 15.8 °F 15.8 °F 74% 30.21 in 10.0 mi NW 5.8 mph - N/A   Overcast
10:35 AM 23.0 °F 13.9 °F 15.8 °F 74% 30.22 in 10.0 mi NW 8.1 mph - N/A   Overcast
10:55 AM 24.8 °F 19.1 °F 15.8 °F 69% 30.23 in 10.0 mi WNW 4.6 mph - N/A   Overcast
11:15 AM 24.8 °F 20.5 °F 14.0 °F 64% 30.24 in 10.0 mi WNW 3.5 mph - N/A   Overcast
11:35 AM 24.8 °F 17.9 °F 14.0 °F 64% 30.26 in 10.0 mi WNW 5.8 mph - N/A   Overcast
11:55 AM 24.8 °F 16.9 °F 14.0 °F 64% 30.27 in 10.0 mi NW 6.9 mph - N/A   Overcast
12:15 PM 24.8 °F 15.3 °F 14.0 °F 64% 30.27 in 10.0 mi NW 9.2 mph - N/A   Overcast
12:55 PM 26.6 °F 18.2 °F 14.0 °F 59% 30.27 in 10.0 mi NNW 8.1 mph - N/A   Mostly Cloudy
1:15 PM 26.6 °F 20.0 °F 14.0 °F 59% 30.28 in 10.0 mi NW 5.8 mph - N/A   Mostly Cloudy
1:35 PM 26.6 °F 19.1 °F 14.0 °F 59% 30.28 in 10.0 mi WNW 6.9 mph - N/A   Scattered Clouds
1:55 PM 26.6 °F 20.0 °F 14.0 °F 59% 30.30 in 10.0 mi WNW 5.8 mph - N/A   Clear
2:15 PM 28.4 °F 19.1 °F 14.0 °F 55% 30.29 in 10.0 mi NW 10.4 mph - N/A   Clear
2:35 PM 28.4 °F 19.7 °F 14.0 °F 55% 30.30 in 10.0 mi NW 9.2 mph - N/A   Clear
2:55 PM 28.4 °F 18.5 °F 14.0 °F 55% 30.31 in 10.0 mi NW 11.5 mph - N/A   Clear
3:15 PM 28.4 °F 24.6 °F 14.0 °F 55% 30.31 in 10.0 mi NW 3.5 mph - N/A   Clear
3:35 PM 30.2 °F 23.4 °F 14.0 °F 51% 30.32 in 10.0 mi NW 6.9 mph - N/A   Clear
3:55 PM 30.2 °F 22.6 °F 14.0 °F 51% 30.32 in 10.0 mi NNW 8.1 mph - N/A   Clear
4:15 PM 30.2 °F 24.3 °F 14.0 °F 51% 30.33 in 10.0 mi West 5.8 mph - N/A   Clear
4:35 PM 30.2 °F 25.4 °F 12.2 °F 47% 30.34 in 10.0 mi NW 4.6 mph - N/A   Clear
4:55 PM 30.2 °F 24.3 °F 12.2 °F 47% 30.34 in 10.0 mi NW 5.8 mph - N/A   Clear
5:15 PM 28.4 °F 24.6 °F 12.2 °F 51% 30.35 in 10.0 mi WNW 3.5 mph - N/A   Clear
5:35 PM 28.4 °F 24.6 °F 12.2 °F 51% 30.35 in 10.0 mi NW 3.5 mph - N/A   Clear
5:55 PM 28.4 °F - 12.2 °F 51% 30.35 in 10.0 mi Calm Calm - N/A   Clear
6:15 PM 26.6 °F - 14.0 °F 59% 30.35 in 10.0 mi Calm Calm - N/A   Clear
6:35 PM 24.8 °F - 14.0 °F 64% 30.35 in 10.0 mi Calm Calm - N/A   Clear
6:55 PM 21.2 °F - 14.0 °F 74% 30.35 in 10.0 mi Calm Calm - N/A   Clear
7:15 PM 19.4 °F - 12.2 °F 74% 30.35 in 10.0 mi Calm Calm - N/A   Clear
7:35 PM 17.6 °F - 12.2 °F 79% 30.35 in 10.0 mi Calm Calm - N/A   Clear
7:55 PM 17.6 °F - 12.2 °F 79% 30.36 in 10.0 mi Calm Calm - N/A   Clear
8:15 PM 17.6 °F - 14.0 °F 86% 30.37 in 10.0 mi Calm Calm - N/A   Clear
8:35 PM 15.8 °F - 12.2 °F 86% 30.37 in 10.0 mi Calm Calm - N/A   Clear
8:55 PM 15.8 °F - 12.2 °F 86% 30.37 in 10.0 mi Calm Calm - N/A   Clear
9:15 PM 14.0 °F - 12.2 °F 93% 30.38 in 10.0 mi Calm Calm - N/A   Clear
9:35 PM 14.0 °F - 10.4 °F 86% 30.38 in 10.0 mi Calm Calm - N/A   Clear
9:55 PM 12.2 °F - 10.4 °F 92% 30.38 in 10.0 mi Calm Calm - N/A   Unknown
10:15 PM 14.0 °F - 10.4 °F 86% 30.38 in 7.0 mi Calm Calm - N/A   Unknown
10:35 PM 14.0 °F - 10.4 °F 86% 30.37 in 10.0 mi Calm Calm - N/A   Clear
10:55 PM 14.0 °F - 12.2 °F 93% 30.37 in 10.0 mi Calm Calm - N/A   Clear
11:15 PM 12.2 °F - 10.4 °F 92% 30.35 in 7.0 mi Calm Calm - N/A   Clear
11:35 PM 14.0 °F - 12.2 °F 93% 30.36 in 5.0 mi Calm Calm - N/A   Clear
11:55 PM 14.0 °F - 10.4 °F 86% 30.35 in 10.0 mi Calm Calm - N/A   Clear